Content
SEND FEEDBACK

Daily
Averages
Monthly
Summary
United Kingdom

LONDON, ENGLAND


Home > Europe > United Kingdom > England
Elevation: 203 feet     Latitude: 51 09N     Longitude: 000 11W

WEATHER
 
SELECT A DAY
Number of Records: 293,936;   Date Range: 7/1/96 - 8/30/14
 
SHARE

PRINT THIS DATA

[ ← Previous Day ]
WEATHER ALMANAC - JULY 18, 2013
[ Next Day → ]
[ °C ]   °F
Weather ElementAverageHighLow
Temperature70.6 °F82.4 °F (1:20 pm)57.2 °F (5:50 am)
Dewpoint57.3 °F60.8 °F (5:20 pm)55.4 °F (1:50 am)
Humidity65.7 %94 % (2:50 am)42 % (1:20 pm)
Barometer30.29 in30.30 in (12:50 am)30.27 in (3:20 pm)
Wind Speed9 mph15 mph (1:20 pm)
Wind Gust25.3 mph (12:50 pm)
Weather ElementAverage
Visibility5 mi
Wind DirectionENE (59.4 °)

Weather ElementTotal
Precipitation---
Cooling Degree Days4.8 (Base 65)
Growing Degree Days19.8 (Base 50)
Averaged from 47 records on July 18, 2013
WEATHER CONDITIONS BREAKOUT
WIND DIRECTION BREAKOUT
WEATHER BY HOUR - JULY 18, 2013
[ °C ]   °F
Local TimeTemperatureDewpointHumidityBarometerVisibilityWind DirectionWind SpeedGust SpeedPrecipitationEventsConditions
12:50 AM62.6 °F57.2 °F82 %30.30 inEast (80°)3.5 mphClear
1:20 AM60.8 °F57.2 °F88 %30.30 inEast (80°)3.5 mphClear
1:50 AM59.0 °F55.4 °F88 %30.30 inEast (100°)2.3 mphClear
2:20 AM59.0 °F55.4 °F88 %30.30 inEast (90°)2.3 mphClear
2:50 AM59.0 °F57.2 °F94 %30.30 inEast (80°)4.6 mphClear
3:20 AM59.0 °F57.2 °F94 %30.30 in5.0 miEast (90°)5.8 mph
3:50 AM59.0 °F57.2 °F94 %30.30 inEast (80°)4.6 mphClear
4:20 AM59.0 °F55.4 °F88 %30.30 inENE (70°)4.6 mphClear
4:50 AM60.8 °F57.2 °F88 %30.30 inVariable3.5 mphClear
5:20 AM59.0 °F55.4 °F88 %30.30 inEast (90°)3.5 mphClear
5:50 AM57.2 °F55.4 °F94 %30.30 inEast (90°)3.5 mphClear
6:20 AM60.8 °F57.2 °F88 %30.30 inENE (70°)4.6 mphClear
6:50 AM62.6 °F59.0 °F88 %30.30 inNE (50°)5.8 mphClear
7:20 AM66.2 °F59.0 °F78 %30.30 inNE (40°)5.8 mphClear
7:50 AM68.0 °F59.0 °F73 %30.30 inEast (80°)4.6 mphClear
8:20 AM69.8 °F59.0 °F68 %30.30 inVariable3.5 mphClear
8:50 AM71.6 °F59.0 °F64 %30.30 inENE (70°)5.8 mphClear
9:20 AM73.4 °F59.0 °F61 %30.30 inENE (70°)8.1 mphClear
9:50 AM75.2 °F59.0 °F57 %30.30 inNE (50°)9.2 mphClear
10:20 AM77.0 °F59.0 °F54 %30.30 inNNE (30°)12.7 mph24.2 mphClear
10:50 AM77.0 °F59.0 °F54 %30.30 inENE (60°)11.5 mphClear
11:20 AM80.6 °F57.2 °F45 %30.30 inNNE (20°)11.5 mphClear
11:50 AM80.6 °F57.2 °F45 %30.30 inNE (50°)13.8 mphClear
12:20 PM80.6 °F57.2 °F45 %30.30 inNE (50°)12.7 mphClear
12:50 PM80.6 °F57.2 °F45 %30.30 inNNE (30°)13.8 mph25.3 mphClear
1:20 PM82.4 °F57.2 °F42 %30.30 inNNE (30°)15.0 mphClear
1:50 PM82.4 °F57.2 °F42 %30.30 inNE (40°)11.5 mphClear
2:20 PM82.4 °F57.2 °F42 %30.30 inNE (40°)13.8 mphClear
2:50 PM82.4 °F57.2 °F42 %30.30 inENE (60°)12.7 mphClear
3:20 PM82.4 °F59.0 °F45 %30.27 inNE (50°)11.5 mphClear
3:50 PM82.4 °F59.0 °F45 %30.27 inENE (60°)13.8 mphClear
4:20 PM82.4 °F59.0 °F45 %30.27 inENE (60°)13.8 mphClear
4:50 PM80.6 °F59.0 °F48 %30.27 inENE (60°)13.8 mphClear
5:20 PM80.6 °F60.8 °F51 %30.27 inENE (70°)12.7 mphClear
5:50 PM78.8 °F59.0 °F51 %30.27 inENE (70°)13.8 mphClear
6:20 PM77.0 °F59.0 °F54 %30.27 inENE (70°)11.5 mphClear
6:50 PM75.2 °F57.2 °F53 %30.27 inENE (70°)13.8 mphClear
7:20 PM73.4 °F57.2 °F57 %30.27 inENE (60°)13.8 mphClear
7:50 PM71.6 °F55.4 °F57 %30.27 inENE (60°)13.8 mphClear
8:20 PM69.8 °F55.4 °F60 %30.27 inENE (60°)11.5 mphClear
8:50 PM68.0 °F55.4 °F64 %30.30 inNE (50°)12.7 mphClear
9:20 PM68.0 °F55.4 °F64 %30.30 inNE (50°)11.5 mphClear
9:50 PM66.2 °F55.4 °F68 %30.30 inNE (50°)10.4 mphClear
10:20 PM64.4 °F55.4 °F73 %30.30 inENE (60°)8.1 mphClear
10:50 PM64.4 °F55.4 °F73 %30.30 inNE (50°)8.1 mphClear
11:20 PM62.6 °F55.4 °F77 %30.30 inENE (70°)5.8 mphClear
11:50 PM60.8 °F55.4 °F82 %30.30 inEast (80°)4.6 mphClear
Hourly data recorded from EGKK, located miles away from London, England







STORIES FROM OUR PARTNERS